Time,TemperatureF,DewpointF,PressureIn,WindDirection,WindDirectionDegrees,WindSpeedMPH,WindSpeedGustMPH,Humidity,HourlyPrecipIn,Conditions,Clouds,dailyrainin,SoftwareType,DateUTC
2013-06-01 00:01:00,47.3,44.8,30.24,ENE,70,0.0,1.0,91,0.00,,,0.00,WUHU216DAVISVP2,2013-06-01 07:01:00,
2013-06-01 00:06:00,47.2,44.7,30.24,ENE,70,0.0,0.0,91,0.00,,,0.00,WUHU216DAVISVP2,2013-06-01 07:06:00,
2013-06-01 00:11:00,47.2,45.0,30.24,ENE,71,0.0,0.0,92,0.00,,,0.00,WUHU216DAVISVP2,2013-06-01 07:11:00,
2013-06-01 00:16:00,47.2,45.0,30.23,ENE,71,0.0,0.0,92,0.00,,,0.00,WUHU216DAVISVP2,2013-06-01 07:16:00,
2013-06-01 00:21:00,47.2,45.0,30.23,ENE,66,0.0,0.0,92,0.00,,,0.00,WUHU216DAVISVP2,2013-06-01 07:21:00,
2013-06-01 00:26:00,47.1,44.9,30.23,ENE,66,0.0,0.0,92,0.00,,,0.00,WUHU216DAVISVP2,2013-06-01 07:26:00,
2013-06-01 00:31:00,47.1,44.9,30.23,ENE,63,0.0,1.0,92,0.00,,,0.00,WUHU216DAVISVP2,2013-06-01 07:31:00,
2013-06-01 00:36:00,47.3,45.3,30.23,ENE,63,0.0,2.0,93,0.00,,,0.00,WUHU216DAVISVP2,2013-06-01 07:36:00,
2013-06-01 00:41:00,47.4,45.4,30.23,ENE,63,0.0,2.0,93,0.00,,,0.00,WUHU216DAVISVP2,2013-06-01 07:41:00,
2013-06-01 00:46:00,47.6,45.3,30.23,ENE,63,0.0,0.0,92,0.00,,,0.00,WUHU216DAVISVP2,2013-06-01 07:46:00,
2013-06-01 00:51:00,47.8,45.5,30.23,ENE,63,0.0,0.0,92,0.00,,,0.00,WUHU216DAVISVP2,2013-06-01 07:51:00,
2013-06-01 00:56:00,47.9,45.6,30.23,ENE,63,0.0,0.0,92,0.00,,,0.00,WUHU216DAVISVP2,2013-06-01 07:56:00,
2013-06-01 01:01:00,48.1,45.8,30.23,ENE,63,0.0,1.0,92,0.00,,,0.00,WUHU216DAVISVP2,2013-06-01 08:01:00,
2013-06-01 01:06:00,48.2,45.9,30.23,ENE,63,0.0,1.0,92,0.00,,,0.00,WUHU216DAVISVP2,2013-06-01 08:06:00,
2013-06-01 01:11:00,48.3,45.8,30.23,ENE,63,0.0,1.0,91,0.00,,,0.00,WUHU216DAVISVP2,2013-06-01 08:11:00,
2013-06-01 01:16:00,48.3,45.8,30.23,ENE,63,0.0,0.0,91,0.00,,,0.00,WUHU216DAVISVP2,2013-06-01 08:16:00,
2013-06-01 01:21:00,48.4,45.9,30.23,ENE,66,0.0,2.0,91,0.00,,,0.00,WUHU216DAVISVP2,2013-06-01 08:21:00,
2013-06-01 01:26:00,48.5,46.0,30.23,ENE,66,1.0,2.0,91,0.00,,,0.00,WUHU216DAVISVP2,2013-06-01 08:26:00,
2013-06-01 01:31:00,48.6,46.1,30.23,ENE,73,0.0,1.0,91,0.00,,,0.00,WUHU216DAVISVP2,2013-06-01 08:31:00,
2013-06-01 01:36:00,48.5,45.7,30.23,ENE,78,1.0,1.0,90,0.00,,,0.00,WUHU216DAVISVP2,2013-06-01 08:36:00,
2013-06-01 01:41:00,48.5,45.7,30.23,ENE,73,1.0,3.0,90,0.00,,,0.00,WUHU216DAVISVP2,2013-06-01 08:41:00,
2013-06-01 01:46:00,48.5,45.7,30.23,ENE,58,1.0,3.0,90,0.00,,,0.00,WUHU216DAVISVP2,2013-06-01 08:46:00,
2013-06-01 01:51:00,48.5,45.7,30.23,ENE,59,0.0,2.0,90,0.00,,,0.00,WUHU216DAVISVP2,2013-06-01 08:51:00,
2013-06-01 01:56:00,48.5,45.7,30.23,ENE,68,0.0,0.0,90,0.00,,,0.00,WUHU216DAVISVP2,2013-06-01 08:56:00,
2013-06-01 02:01:00,48.5,45.7,30.23,ENE,62,0.0,2.0,90,0.00,,,0.00,WUHU216DAVISVP2,2013-06-01 09:01:00,
2013-06-01 02:06:00,48.6,45.8,30.23,NE,56,0.0,2.0,90,0.00,,,0.00,WUHU216DAVISVP2,2013-06-01 09:06:00,
2013-06-01 02:11:00,48.6,45.8,30.23,East,79,0.0,1.0,90,0.00,,,0.00,WUHU216DAVISVP2,2013-06-01 09:11:00,
2013-06-01 02:16:00,48.7,45.9,30.23,East,79,0.0,1.0,90,0.00,,,0.00,WUHU216DAVISVP2,2013-06-01 09:16:00,
2013-06-01 02:21:00,48.7,45.9,30.23,ENE,64,0.0,2.0,90,0.00,,,0.00,WUHU216DAVISVP2,2013-06-01 09:21:00,
2013-06-01 02:26:00,48.7,45.9,30.23,ENE,59,0.0,2.0,90,0.00,,,0.00,WUHU216DAVISVP2,2013-06-01 09:26:00,
2013-06-01 02:31:00,48.7,45.9,30.22,ENE,59,0.0,1.0,90,0.00,,,0.00,WUHU216DAVISVP2,2013-06-01 09:31:00,
2013-06-01 02:36:00,48.7,45.9,30.22,ENE,68,0.0,0.0,90,0.00,,,0.00,WUHU216DAVISVP2,2013-06-01 09:36:00,
2013-06-01 02:41:00,48.6,45.8,30.22,ENE,68,0.0,0.0,90,0.00,,,0.00,WUHU216DAVISVP2,2013-06-01 09:41:00,
2013-06-01 02:46:00,48.6,45.8,30.22,ENE,68,1.0,1.0,90,0.00,,,0.00,WUHU216DAVISVP2,2013-06-01 09:46:00,
2013-06-01 02:51:00,48.6,45.8,30.22,ENE,68,0.0,1.0,90,0.00,,,0.00,WUHU216DAVISVP2,2013-06-01 09:51:00,
2013-06-01 02:56:00,48.6,46.1,30.22,ENE,68,0.0,1.0,91,0.00,,,0.00,WUHU216DAVISVP2,2013-06-01 09:56:00,
2013-06-01 03:01:00,48.5,46.0,30.22,ENE,68,0.0,0.0,91,0.00,,,0.00,WUHU216DAVISVP2,2013-06-01 10:01:00,
2013-06-01 03:06:00,48.5,46.0,30.22,ENE,68,0.0,0.0,91,0.00,,,0.00,WUHU216DAVISVP2,2013-06-01 10:06:00,
2013-06-01 03:11:00,48.5,46.0,30.22,ENE,68,0.0,0.0,91,0.00,,,0.00,WUHU216DAVISVP2,2013-06-01 10:11:00,
2013-06-01 03:16:00,48.4,45.9,30.21,ENE,68,0.0,0.0,91,0.00,,,0.00,WUHU216DAVISVP2,2013-06-01 10:16:00,
2013-06-01 03:21:00,48.4,45.9,30.21,ENE,68,0.0,0.0,91,0.00,,,0.00,WUHU216DAVISVP2,2013-06-01 10:21:00,
2013-06-01 03:26:00,48.4,45.9,30.21,ENE,68,0.0,0.0,91,0.00,,,0.00,WUHU216DAVISVP2,2013-06-01 10:26:00,
2013-06-01 03:31:00,48.4,45.9,30.20,ENE,68,0.0,0.0,91,0.00,,,0.00,WUHU216DAVISVP2,2013-06-01 10:31:00,
2013-06-01 03:36:00,48.4,45.9,30.20,ENE,68,0.0,0.0,91,0.00,,,0.00,WUHU216DAVISVP2,2013-06-01 10:36:00,
2013-06-01 03:41:00,48.5,46.0,30.20,ENE,68,0.0,0.0,91,0.00,,,0.00,WUHU216DAVISVP2,2013-06-01 10:41:00,
2013-06-01 03:46:00,48.5,46.0,30.20,ENE,68,0.0,0.0,91,0.00,,,0.00,WUHU216DAVISVP2,2013-06-01 10:46:00,
2013-06-01 03:51:00,48.6,46.1,30.20,ENE,68,0.0,0.0,91,0.00,,,0.00,WUHU216DAVISVP2,2013-06-01 10:51:00,
2013-06-01 03:56:00,48.5,46.0,30.20,ENE,68,0.0,0.0,91,0.00,,,0.00,WUHU216DAVISVP2,2013-06-01 10:56:00,
2013-06-01 04:01:00,48.5,46.0,30.20,ENE,68,0.0,0.0,91,0.00,,,0.00,WUHU216DAVISVP2,2013-06-01 11:01:00,
2013-06-01 04:06:00,48.4,45.9,30.20,ENE,68,0.0,0.0,91,0.00,,,0.00,WUHU216DAVISVP2,2013-06-01 11:06:00,
2013-06-01 04:11:00,48.4,46.1,30.20,ENE,68,0.0,0.0,92,0.00,,,0.00,WUHU216DAVISVP2,2013-06-01 11:11:00,
2013-06-01 04:16:00,48.4,46.1,30.20,ENE,68,0.0,0.0,92,0.00,,,0.00,WUHU216DAVISVP2,2013-06-01 11:16:00,
2013-06-01 04:21:00,48.3,46.0,30.20,ENE,68,0.0,0.0,92,0.00,,,0.00,WUHU216DAVISVP2,2013-06-01 11:21:00,
2013-06-01 04:26:00,48.2,45.9,30.20,ENE,68,0.0,0.0,92,0.00,,,0.00,WUHU216DAVISVP2,2013-06-01 11:26:00,
2013-06-01 04:31:00,48.2,47.1,30.20,ENE,68,0.0,1.0,96,0.00,,,0.00,WUHU216DAVISVP2,2013-06-01 11:31:00,
2013-06-01 04:36:00,48.2,45.9,30.20,ENE,68,0.0,1.0,92,0.00,,,0.00,WUHU216DAVISVP2,2013-06-01 11:36:00,
2013-06-01 04:41:00,48.3,46.0,30.19,ENE,68,0.0,1.0,92,0.00,,,0.00,WUHU216DAVISVP2,2013-06-01 11:41:00,
2013-06-01 04:46:00,48.3,46.0,30.20,ENE,68,0.0,1.0,92,0.00,,,0.00,WUHU216DAVISVP2,2013-06-01 11:46:00,
2013-06-01 04:51:00,48.3,46.0,30.20,ENE,68,0.0,0.0,92,0.00,,,0.00,WUHU216DAVISVP2,2013-06-01 11:51:00,
2013-06-01 04:56:00,48.3,46.0,30.20,ENE,68,0.0,0.0,92,0.00,,,0.00,WUHU216DAVISVP2,2013-06-01 11:56:00,
2013-06-01 05:01:00,48.3,46.0,30.20,ENE,68,0.0,1.0,92,0.00,,,0.00,WUHU216DAVISVP2,2013-06-01 12:01:00,
2013-06-01 05:06:00,48.4,46.1,30.19,ENE,68,0.0,1.0,92,0.00,,,0.00,WUHU216DAVISVP2,2013-06-01 12:06:00,
2013-06-01 05:11:00,48.4,46.1,30.20,ENE,68,0.0,0.0,92,0.00,,,0.00,WUHU216DAVISVP2,2013-06-01 12:11:00,
2013-06-01 05:16:00,48.4,46.1,30.19,ENE,68,0.0,0.0,92,0.00,,,0.00,WUHU216DAVISVP2,2013-06-01 12:16:00,
2013-06-01 05:21:00,48.4,46.1,30.20,ENE,68,0.0,0.0,92,0.00,,,0.00,WUHU216DAVISVP2,2013-06-01 12:21:00,
2013-06-01 05:26:00,48.5,46.2,30.20,ENE,68,1.0,1.0,92,0.00,,,0.00,WUHU216DAVISVP2,2013-06-01 12:26:00,
2013-06-01 05:31:00,48.5,46.3,30.20,ENE,68,0.0,1.0,92,0.00,,,0.00,WUHU216DAVISVP2,2013-06-01 12:31:00,
2013-06-01 05:36:00,48.5,46.3,30.20,ENE,68,0.0,0.0,92,0.00,,,0.00,WUHU216DAVISVP2,2013-06-01 12:36:00,
2013-06-01 05:41:00,48.5,46.3,30.20,ENE,68,0.0,0.0,92,0.00,,,0.00,WUHU216DAVISVP2,2013-06-01 12:41:00,
2013-06-01 05:46:00,48.5,46.3,30.20,ENE,68,0.0,0.0,92,0.00,,,0.00,WUHU216DAVISVP2,2013-06-01 12:46:00,
2013-06-01 05:51:00,48.6,46.4,30.20,ENE,68,0.0,0.0,92,0.00,,,0.00,WUHU216DAVISVP2,2013-06-01 12:51:00,
2013-06-01 05:56:00,48.6,46.4,30.20,ENE,68,0.0,0.0,92,0.00,,,0.00,WUHU216DAVISVP2,2013-06-01 12:56:00,
2013-06-01 06:02:00,48.7,46.5,30.20,ENE,68,0.0,0.0,92,0.00,,,0.00,WUHU216DAVISVP2,2013-06-01 13:02:00,
2013-06-01 06:07:00,48.8,46.6,30.19,ENE,68,0.0,1.0,92,0.00,,,0.00,WUHU216DAVISVP2,2013-06-01 13:07:00,
2013-06-01 06:12:00,48.8,46.6,30.20,ENE,68,0.0,1.0,92,0.00,,,0.00,WUHU216DAVISVP2,2013-06-01 13:12:00,
2013-06-01 06:17:00,48.8,46.6,30.20,ENE,68,0.0,0.0,92,0.00,,,0.00,WUHU216DAVISVP2,2013-06-01 13:17:00,
2013-06-01 06:22:00,48.9,46.6,30.20,ENE,68,0.0,0.0,92,0.00,,,0.00,WUHU216DAVISVP2,2013-06-01 13:22:00,
2013-06-01 06:27:00,49.0,46.7,30.19,ENE,68,0.0,1.0,92,0.00,,,0.00,WUHU216DAVISVP2,2013-06-01 13:27:00,
2013-06-01 06:32:00,49.2,46.9,30.20,ENE,68,0.0,1.0,92,0.00,,,0.00,WUHU216DAVISVP2,2013-06-01 13:32:00,
2013-06-01 06:37:00,49.4,47.4,30.20,ENE,68,0.0,0.0,93,0.00,,,0.00,WUHU216DAVISVP2,2013-06-01 13:37:00,
2013-06-01 06:42:00,49.5,47.2,30.19,ENE,68,0.0,0.0,92,0.00,,,0.00,WUHU216DAVISVP2,2013-06-01 13:42:00,
2013-06-01 06:47:00,49.6,47.3,30.19,ENE,68,0.0,0.0,92,0.00,,,0.00,WUHU216DAVISVP2,2013-06-01 13:47:00,
2013-06-01 06:52:00,49.7,47.4,30.19,ENE,68,0.0,0.0,92,0.00,,,0.00,WUHU216DAVISVP2,2013-06-01 13:52:00,
2013-06-01 06:57:00,49.9,47.3,30.19,ENE,68,0.0,2.0,91,0.00,,,0.00,WUHU216DAVISVP2,2013-06-01 13:57:00,
2013-06-01 07:02:00,50.0,47.4,30.19,NE,53,0.0,2.0,91,0.00,,,0.00,WUHU216DAVISVP2,2013-06-01 14:02:00,
2013-06-01 07:07:00,50.2,47.3,30.18,ENE,59,0.0,1.0,90,0.00,,,0.00,WUHU216DAVISVP2,2013-06-01 14:07:00,
2013-06-01 07:12:00,50.4,47.6,30.18,ENE,59,0.0,1.0,90,0.00,,,0.00,WUHU216DAVISVP2,2013-06-01 14:12:00,
2013-06-01 07:17:00,50.6,47.8,30.19,ENE,59,1.0,1.0,90,0.00,,,0.00,WUHU216DAVISVP2,2013-06-01 14:17:00,
2013-06-01 07:22:00,50.9,48.1,30.19,ENE,59,0.0,1.0,90,0.00,,,0.00,WUHU216DAVISVP2,2013-06-01 14:22:00,
2013-06-01 07:27:00,51.1,48.9,30.18,NE,46,0.0,2.0,92,0.00,,,0.00,WUHU216DAVISVP2,2013-06-01 14:27:00,
2013-06-01 07:32:00,51.4,48.0,30.18,NE,46,0.0,2.0,88,0.00,,,0.00,WUHU216DAVISVP2,2013-06-01 14:32:00,
2013-06-01 07:37:00,51.6,48.5,30.18,NE,46,0.0,0.0,89,0.00,,,0.00,WUHU216DAVISVP2,2013-06-01 14:37:00,
2013-06-01 07:42:00,51.9,48.2,30.18,NE,46,0.0,1.0,87,0.00,,,0.00,WUHU216DAVISVP2,2013-06-01 14:42:00,
2013-06-01 07:47:00,52.3,48.8,30.18,NE,46,0.0,1.0,88,0.00,,,0.00,WUHU216DAVISVP2,2013-06-01 14:47:00,
2013-06-01 07:52:00,52.6,48.8,30.19,NE,46,0.0,1.0,87,0.00,,,0.00,WUHU216DAVISVP2,2013-06-01 14:52:00,
2013-06-01 07:57:00,52.8,48.7,30.18,SW,215,0.0,2.0,86,0.00,,,0.00,WUHU216DAVISVP2,2013-06-01 14:57:00,
2013-06-01 08:02:00,52.9,49.1,30.18,SW,215,1.0,2.0,87,0.00,,,0.00,WUHU216DAVISVP2,2013-06-01 15:02:00,
2013-06-01 08:07:00,53.0,49.2,30.18,WSW,241,0.0,2.0,87,0.00,,,0.00,WUHU216DAVISVP2,2013-06-01 15:07:00,
2013-06-01 08:12:00,53.1,48.7,30.18,NNW,346,0.0,2.0,85,0.00,,,0.00,WUHU216DAVISVP2,2013-06-01 15:12:00,
2013-06-01 08:17:00,53.1,48.4,30.18,NNW,346,0.0,2.0,84,0.00,,,0.00,WUHU216DAVISVP2,2013-06-01 15:17:00,
2013-06-01 08:22:00,53.4,48.7,30.18,NNW,346,0.0,1.0,84,0.00,,,0.00,WUHU216DAVISVP2,2013-06-01 15:22:00,
2013-06-01 08:27:00,53.8,49.1,30.17,NNW,346,0.0,1.0,84,0.00,,,0.00,WUHU216DAVISVP2,2013-06-01 15:27:00,
2013-06-01 08:32:00,54.2,48.8,30.17,NNW,340,2.0,2.0,82,0.00,,,0.00,WUHU216DAVISVP2,2013-06-01 15:32:00,
2013-06-01 08:37:00,54.6,48.9,30.17,North,355,0.0,2.0,81,0.00,,,0.00,WUHU216DAVISVP2,2013-06-01 15:37:00,
2013-06-01 08:42:00,55.0,49.6,30.18,North,355,0.0,1.0,82,0.00,,,0.00,WUHU216DAVISVP2,2013-06-01 15:42:00,
2013-06-01 08:47:00,55.2,49.5,30.17,North,355,0.0,1.0,81,0.00,,,0.00,WUHU216DAVISVP2,2013-06-01 15:47:00,
2013-06-01 08:51:00,55.4,50.0,30.18,West,266,0.0,2.0,82,0.00,,,0.00,WUHU216DAVISVP2,2013-06-01 15:51:00,
2013-06-01 08:56:00,55.6,49.9,30.18,West,266,0.0,2.0,81,0.00,,,0.00,WUHU216DAVISVP2,2013-06-01 15:56:00,
2013-06-01 09:01:00,56.0,50.3,30.17,SW,223,1.0,2.0,81,0.00,,,0.00,WUHU216DAVISVP2,2013-06-01 16:01:00,
2013-06-01 09:06:00,56.4,51.0,30.17,SW,232,2.0,2.0,82,0.00,,,0.00,WUHU216DAVISVP2,2013-06-01 16:06:00,
2013-06-01 09:11:00,56.7,50.6,30.17,SW,219,2.0,3.0,80,0.00,,,0.00,WUHU216DAVISVP2,2013-06-01 16:11:00,
2013-06-01 09:16:00,56.7,50.3,30.18,SW,217,0.0,4.0,79,0.00,,,0.00,WUHU216DAVISVP2,2013-06-01 16:16:00,
2013-06-01 09:21:00,56.9,50.5,30.18,WSW,253,0.0,4.0,79,0.00,,,0.00,WUHU216DAVISVP2,2013-06-01 16:21:00,
2013-06-01 09:26:00,57.3,51.2,30.17,WSW,254,1.0,1.0,80,0.00,,,0.00,WUHU216DAVISVP2,2013-06-01 16:26:00,
2013-06-01 09:31:00,57.7,51.0,30.17,North,350,2.0,4.0,78,0.00,,,0.00,WUHU216DAVISVP2,2013-06-01 16:31:00,
2013-06-01 09:36:00,57.8,51.0,30.17,NNE,30,2.0,4.0,78,0.00,,,0.00,WUHU216DAVISVP2,2013-06-01 16:36:00,
2013-06-01 09:41:00,58.2,51.4,30.17,NNW,327,0.0,3.0,78,0.00,,,0.00,WUHU216DAVISVP2,2013-06-01 16:41:00,
2013-06-01 09:46:00,58.5,51.7,30.17,NNW,348,0.0,3.0,78,0.00,,,0.00,WUHU216DAVISVP2,2013-06-01 16:46:00,
2013-06-01 09:51:00,58.8,51.7,30.16,North,5,0.0,2.0,77,0.00,,,0.00,WUHU216DAVISVP2,2013-06-01 16:51:00,
2013-06-01 09:56:00,59.2,51.4,30.17,North,349,2.0,3.0,75,0.00,,,0.00,WUHU216DAVISVP2,2013-06-01 16:56:00,
2013-06-01 10:01:00,59.4,51.1,30.16,NNW,347,3.0,3.0,74,0.00,,,0.00,WUHU216DAVISVP2,2013-06-01 17:01:00,
2013-06-01 10:06:00,59.5,51.7,30.16,NE,42,0.0,5.0,75,0.00,,,0.00,WUHU216DAVISVP2,2013-06-01 17:06:00,
2013-06-01 10:11:00,59.8,51.2,30.16,North,350,4.0,5.0,73,0.00,,,0.00,WUHU216DAVISVP2,2013-06-01 17:11:00,
2013-06-01 10:16:00,60.2,50.9,30.16,West,261,0.0,4.0,71,0.00,,,0.00,WUHU216DAVISVP2,2013-06-01 17:16:00,
2013-06-01 10:21:00,60.5,50.0,30.16,NNW,333,1.0,4.0,68,0.00,,,0.00,WUHU216DAVISVP2,2013-06-01 17:21:00,
2013-06-01 10:26:00,60.5,49.6,30.15,SW,229,2.0,4.0,67,0.00,,,0.00,WUHU216DAVISVP2,2013-06-01 17:26:00,
2013-06-01 10:31:00,60.7,50.6,30.15,SSW,205,3.0,4.0,69,0.00,,,0.00,WUHU216DAVISVP2,2013-06-01 17:31:00,
2013-06-01 10:36:00,60.9,50.0,30.15,West,265,0.0,4.0,67,0.00,,,0.00,WUHU216DAVISVP2,2013-06-01 17:36:00,
2013-06-01 10:41:00,61.3,49.6,30.15,North,351,0.0,4.0,65,0.00,,,0.00,WUHU216DAVISVP2,2013-06-01 17:41:00,
2013-06-01 10:46:00,61.8,50.1,30.15,NNW,327,3.0,4.0,65,0.00,,,0.00,WUHU216DAVISVP2,2013-06-01 17:46:00,
2013-06-01 10:51:00,61.9,49.7,30.15,NW,304,2.0,4.0,64,0.00,,,0.00,WUHU216DAVISVP2,2013-06-01 17:51:00,
2013-06-01 10:56:00,62.2,50.0,30.14,NNW,348,1.0,4.0,64,0.00,,,0.00,WUHU216DAVISVP2,2013-06-01 17:56:00,
2013-06-01 11:01:00,62.4,50.2,30.15,NW,325,2.0,6.0,64,0.00,,,0.00,WUHU216DAVISVP2,2013-06-01 18:01:00,
2013-06-01 11:06:00,62.6,49.5,30.14,NNW,342,0.0,6.0,62,0.00,,,0.00,WUHU216DAVISVP2,2013-06-01 18:06:00,
2013-06-01 11:11:00,62.9,49.8,30.14,NNW,338,2.0,3.0,62,0.00,,,0.00,WUHU216DAVISVP2,2013-06-01 18:11:00,
2013-06-01 11:16:00,63.0,51.2,30.14,SW,225,3.0,3.0,65,0.00,,,0.00,WUHU216DAVISVP2,2013-06-01 18:16:00,
2013-06-01 11:21:00,63.1,51.1,30.13,South,184,2.0,3.0,65,0.00,,,0.00,WUHU216DAVISVP2,2013-06-01 18:21:00,
2013-06-01 11:26:00,63.4,50.7,30.13,SSW,209,1.0,3.0,63,0.00,,,0.00,WUHU216DAVISVP2,2013-06-01 18:26:00,
2013-06-01 11:31:00,63.4,50.3,30.13,NNE,28,3.0,4.0,62,0.00,,,0.00,WUHU216DAVISVP2,2013-06-01 18:31:00,
2013-06-01 11:36:00,63.3,49.6,30.13,North,9,1.0,7.0,61,0.00,,,0.00,WUHU216DAVISVP2,2013-06-01 18:36:00,
2013-06-01 11:41:00,63.3,51.9,30.14,WSW,238,2.0,7.0,66,0.00,,,0.00,WUHU216DAVISVP2,2013-06-01 18:41:00,
2013-06-01 11:46:00,63.4,51.0,30.13,NNW,336,5.0,6.0,64,0.00,,,0.00,WUHU216DAVISVP2,2013-06-01 18:46:00,
2013-06-01 11:51:00,63.9,51.6,30.13,West,271,1.0,5.0,64,0.00,,,0.00,WUHU216DAVISVP2,2013-06-01 18:51:00,
2013-06-01 11:56:00,64.1,50.1,30.13,SW,225,2.0,3.0,60,0.00,,,0.00,WUHU216DAVISVP2,2013-06-01 18:56:00,
2013-06-01 12:01:00,64.0,51.3,30.13,SW,232,1.0,4.0,63,0.00,,,0.00,WUHU216DAVISVP2,2013-06-01 19:01:00,
2013-06-01 12:06:00,64.3,51.6,30.13,West,273,1.0,4.0,63,0.00,,,0.00,WUHU216DAVISVP2,2013-06-01 19:06:00,
2013-06-01 12:11:00,64.6,51.4,30.12,NNW,340,0.0,4.0,62,0.00,,,0.00,WUHU216DAVISVP2,2013-06-01 19:11:00,
2013-06-01 12:16:00,65.0,51.8,30.12,NNW,342,1.0,4.0,62,0.00,,,0.00,WUHU216DAVISVP2,2013-06-01 19:16:00,
2013-06-01 12:21:00,65.0,51.8,30.12,NNW,338,6.0,6.0,62,0.00,,,0.00,WUHU216DAVISVP2,2013-06-01 19:21:00,
2013-06-01 12:26:00,64.9,50.8,30.12,NNE,21,1.0,6.0,60,0.00,,,0.00,WUHU216DAVISVP2,2013-06-01 19:26:00,
2013-06-01 12:31:00,65.2,52.5,30.12,WSW,255,1.0,6.0,63,0.00,,,0.00,WUHU216DAVISVP2,2013-06-01 19:31:00,
2013-06-01 12:36:00,65.9,54.0,30.11,NW,317,2.0,2.0,65,0.00,,,0.00,WUHU216DAVISVP2,2013-06-01 19:36:00,
2013-06-01 12:41:00,66.6,52.0,30.11,West,279,1.0,2.0,59,0.00,,,0.00,WUHU216DAVISVP2,2013-06-01 19:41:00,
2013-06-01 12:46:00,66.8,52.6,30.11,WNW,284,2.0,5.0,60,0.00,,,0.00,WUHU216DAVISVP2,2013-06-01 19:46:00,
2013-06-01 12:51:00,67.0,51.9,30.11,NNW,332,5.0,5.0,58,0.00,,,0.00,WUHU216DAVISVP2,2013-06-01 19:51:00,
2013-06-01 12:56:00,66.6,50.9,30.11,NE,51,4.0,5.0,57,0.00,,,0.00,WUHU216DAVISVP2,2013-06-01 19:56:00,
2013-06-01 13:01:00,66.2,51.6,30.11,West,273,1.0,4.0,59,0.00,,,0.00,WUHU216DAVISVP2,2013-06-01 20:01:00,
2013-06-01 13:06:00,66.3,51.1,30.11,SSW,213,3.0,4.0,58,0.00,,,0.00,WUHU216DAVISVP2,2013-06-01 20:06:00,
2013-06-01 13:11:00,66.8,52.6,30.11,SSW,196,2.0,4.0,60,0.00,,,0.00,WUHU216DAVISVP2,2013-06-01 20:11:00,
2013-06-01 13:16:00,67.3,52.0,30.10,North,355,3.0,3.0,58,0.00,,,0.00,WUHU216DAVISVP2,2013-06-01 20:16:00,
2013-06-01 13:21:00,66.9,51.3,30.10,NW,321,1.0,9.0,57,0.00,,,0.00,WUHU216DAVISVP2,2013-06-01 20:21:00,
2013-06-01 13:26:00,67.1,51.4,30.10,NNW,342,2.0,9.0,57,0.00,,,0.00,WUHU216DAVISVP2,2013-06-01 20:26:00,
2013-06-01 13:31:00,67.5,52.4,30.10,NNW,333,3.0,6.0,58,0.00,,,0.00,WUHU216DAVISVP2,2013-06-01 20:31:00,
2013-06-01 13:36:00,67.6,51.3,30.10,WNW,290,1.0,4.0,56,0.00,,,0.00,WUHU216DAVISVP2,2013-06-01 20:36:00,
2013-06-01 13:41:00,67.5,51.4,30.10,NNW,329,5.0,5.0,56,0.00,,,0.00,WUHU216DAVISVP2,2013-06-01 20:41:00,
2013-06-01 13:46:00,66.9,51.3,30.10,West,263,0.0,7.0,57,0.00,,,0.00,WUHU216DAVISVP2,2013-06-01 20:46:00,
2013-06-01 13:51:00,66.7,50.6,30.10,NW,304,1.0,7.0,56,0.00,,,0.00,WUHU216DAVISVP2,2013-06-01 20:51:00,
2013-06-01 13:56:00,67.1,52.0,30.09,North,360,1.0,7.0,58,0.00,,,0.00,WUHU216DAVISVP2,2013-06-01 20:56:00,
2013-06-01 14:01:00,67.2,51.1,30.09,SSW,212,2.0,7.0,56,0.00,,,0.00,WUHU216DAVISVP2,2013-06-01 21:01:00,
2013-06-01 14:06:00,67.2,51.6,30.10,West,277,2.0,4.0,57,0.00,,,0.00,WUHU216DAVISVP2,2013-06-01 21:06:00,
2013-06-01 14:12:00,67.2,51.0,30.10,West,270,3.0,5.0,56,0.00,,,0.00,WUHU216DAVISVP2,2013-06-01 21:12:00,
2013-06-01 14:17:00,67.6,52.0,30.10,NW,309,0.0,7.0,57,0.00,,,0.00,WUHU216DAVISVP2,2013-06-01 21:17:00,
2013-06-01 14:22:00,68.3,52.6,30.10,SW,226,2.0,7.0,57,0.00,,,0.00,WUHU216DAVISVP2,2013-06-01 21:22:00,
2013-06-01 14:30:00,68.8,52.0,30.09,West,270,1.0,5.0,55,0.00,,,0.00,WUHU216DAVISVP2,2013-06-01 21:30:00,
2013-06-01 14:36:00,69.4,52.0,30.09,SW,225,3.0,6.0,54,0.00,,,0.00,WUHU216DAVISVP2,2013-06-01 21:36:00,
2013-06-01 14:41:00,69.5,51.6,30.09,SW,225,3.0,6.0,53,0.00,,,0.00,WUHU216DAVISVP2,2013-06-01 21:41:00,
2013-06-01 14:46:00,69.8,51.5,30.09,West,273,0.0,7.0,52,0.00,,,0.00,WUHU216DAVISVP2,2013-06-01 21:46:00,
2013-06-01 14:51:00,70.0,50.6,30.09,NNW,333,2.0,7.0,50,0.00,,,0.00,WUHU216DAVISVP2,2013-06-01 21:51:00,
2013-06-01 14:56:00,70.2,51.8,30.09,NNW,346,2.0,5.0,52,0.00,,,0.00,WUHU216DAVISVP2,2013-06-01 21:56:00,
2013-06-01 15:01:00,70.0,51.1,30.09,West,272,0.0,6.0,51,0.00,,,0.00,WUHU216DAVISVP2,2013-06-01 22:01:00,
2013-06-01 15:06:00,69.8,50.4,30.09,West,278,3.0,6.0,50,0.00,,,0.00,WUHU216DAVISVP2,2013-06-01 22:06:00,
2013-06-01 15:11:00,69.1,50.7,30.08,NNW,328,0.0,4.0,52,0.00,,,0.00,WUHU216DAVISVP2,2013-06-01 22:11:00,
2013-06-01 15:16:00,68.8,49.5,30.08,NE,40,0.0,2.0,50,0.00,,,0.00,WUHU216DAVISVP2,2013-06-01 22:16:00,
2013-06-01 15:21:00,68.6,49.8,30.08,NNW,337,0.0,3.0,51,0.00,,,0.00,WUHU216DAVISVP2,2013-06-01 22:21:00,
2013-06-01 15:26:00,68.4,49.0,30.08,North,355,4.0,4.0,50,0.00,,,0.00,WUHU216DAVISVP2,2013-06-01 22:26:00,
2013-06-01 15:31:00,68.3,48.4,30.08,NNW,344,0.0,6.0,49,0.00,,,0.00,WUHU216DAVISVP2,2013-06-01 22:31:00,
2013-06-01 15:36:00,68.4,49.1,30.07,NNW,333,2.0,6.0,50,0.00,,,0.00,WUHU216DAVISVP2,2013-06-01 22:36:00,
2013-06-01 15:41:00,68.8,49.5,30.07,West,264,2.0,3.0,50,0.00,,,0.00,WUHU216DAVISVP2,2013-06-01 22:41:00,
2013-06-01 15:46:00,68.9,48.4,30.07,NNW,338,4.0,9.0,48,0.00,,,0.00,WUHU216DAVISVP2,2013-06-01 22:46:00,
2013-06-01 15:51:00,69.2,50.4,30.07,SW,230,1.0,9.0,51,0.00,,,0.00,WUHU216DAVISVP2,2013-06-01 22:51:00,
2013-06-01 15:56:00,69.6,49.6,30.07,North,360,1.0,5.0,49,0.00,,,0.00,WUHU216DAVISVP2,2013-06-01 22:56:00,
2013-06-01 16:01:00,69.5,50.0,30.07,WSW,241,2.0,7.0,50,0.00,,,0.00,WUHU216DAVISVP2,2013-06-01 23:01:00,
2013-06-01 16:06:00,69.2,49.8,30.07,West,266,1.0,7.0,50,0.00,,,0.00,WUHU216DAVISVP2,2013-06-01 23:06:00,
2013-06-01 16:11:00,68.7,49.9,30.07,West,276,0.0,3.0,51,0.00,,,0.00,WUHU216DAVISVP2,2013-06-01 23:11:00,
2013-06-01 16:16:00,68.4,50.2,30.07,NNE,24,0.0,3.0,52,0.00,,,0.00,WUHU216DAVISVP2,2013-06-01 23:16:00,
2013-06-01 16:21:00,68.4,49.6,30.07,WNW,296,3.0,3.0,51,0.00,,,0.00,WUHU216DAVISVP2,2013-06-01 23:21:00,
2013-06-01 16:26:00,68.7,49.4,30.06,West,269,0.0,3.0,50,0.00,,,0.00,WUHU216DAVISVP2,2013-06-01 23:26:00,
2013-06-01 16:31:00,69.2,50.4,30.07,WNW,303,2.0,5.0,51,0.00,,,0.00,WUHU216DAVISVP2,2013-06-01 23:31:00,
2013-06-01 16:36:00,69.7,51.4,30.06,North,350,3.0,5.0,52,0.00,,,0.00,WUHU216DAVISVP2,2013-06-01 23:36:00,
2013-06-01 16:41:00,70.0,50.0,30.06,West,280,3.0,4.0,49,0.00,,,0.00,WUHU216DAVISVP2,2013-06-01 23:41:00,
2013-06-01 16:46:00,69.5,50.0,30.06,West,281,1.0,4.0,50,0.00,,,0.00,WUHU216DAVISVP2,2013-06-01 23:46:00,
2013-06-01 16:51:00,69.4,49.9,30.06,SSW,201,0.0,4.0,50,0.00,,,0.00,WUHU216DAVISVP2,2013-06-01 23:51:00,
2013-06-01 16:56:00,69.0,49.6,30.06,North,360,6.0,6.0,50,0.00,,,0.00,WUHU216DAVISVP2,2013-06-01 23:56:00,
2013-06-01 17:01:00,68.8,51.1,30.06,NNW,330,2.0,6.0,53,0.00,,,0.00,WUHU216DAVISVP2,2013-06-02 00:01:00,
2013-06-01 17:06:00,69.3,51.0,30.05,NNE,17,1.0,5.0,52,0.00,,,0.00,WUHU216DAVISVP2,2013-06-02 00:06:00,
2013-06-01 17:11:00,69.6,49.6,30.05,West,273,0.0,5.0,49,0.00,,,0.00,WUHU216DAVISVP2,2013-06-02 00:11:00,
2013-06-01 17:16:00,69.5,50.6,30.05,SW,231,7.0,9.0,51,0.00,,,0.00,WUHU216DAVISVP2,2013-06-02 00:16:00,
2013-06-01 17:21:00,69.4,51.5,30.05,West,268,1.0,9.0,53,0.00,,,0.00,WUHU216DAVISVP2,2013-06-02 00:21:00,
2013-06-01 17:26:00,69.7,50.8,30.05,WSW,240,1.0,4.0,51,0.00,,,0.00,WUHU216DAVISVP2,2013-06-02 00:26:00,
2013-06-01 17:31:00,69.7,50.3,30.05,SW,225,2.0,5.0,50,0.00,,,0.00,WUHU216DAVISVP2,2013-06-02 00:31:00,
2013-06-01 17:36:00,69.9,50.5,30.04,WNW,303,2.0,5.0,50,0.00,,,0.00,WUHU216DAVISVP2,2013-06-02 00:36:00,
2013-06-01 17:41:00,69.8,50.4,30.05,WSW,254,1.0,4.0,50,0.00,,,0.00,WUHU216DAVISVP2,2013-06-02 00:41:00,
2013-06-01 17:46:00,69.8,49.2,30.04,NE,55,1.0,8.0,48,0.00,,,0.00,WUHU216DAVISVP2,2013-06-02 00:46:00,
2013-06-01 17:51:00,69.8,49.2,30.04,NNW,333,5.0,8.0,48,0.00,,,0.00,WUHU216DAVISVP2,2013-06-02 00:51:00,
2013-06-01 17:56:00,70.0,50.0,30.03,WNW,285,2.0,6.0,49,0.00,,,0.00,WUHU216DAVISVP2,2013-06-02 00:56:00,
2013-06-01 18:01:00,70.2,50.2,30.03,East,88,0.0,4.0,49,0.00,,,0.00,WUHU216DAVISVP2,2013-06-02 01:01:00,
2013-06-01 18:06:00,70.4,49.2,30.03,NNE,31,1.0,3.0,47,0.00,,,0.00,WUHU216DAVISVP2,2013-06-02 01:06:00,
2013-06-01 18:11:00,70.6,50.0,30.03,NNW,328,1.0,4.0,48,0.00,,,0.00,WUHU216DAVISVP2,2013-06-02 01:11:00,
2013-06-01 18:16:00,70.7,50.6,30.03,SW,230,0.0,6.0,49,0.00,,,0.00,WUHU216DAVISVP2,2013-06-02 01:16:00,
2013-06-01 18:21:00,70.4,49.8,30.03,SSW,206,4.0,6.0,48,0.00,,,0.00,WUHU216DAVISVP2,2013-06-02 01:21:00,
2013-06-01 18:26:00,70.3,50.3,30.02,SW,232,1.0,4.0,49,0.00,,,0.00,WUHU216DAVISVP2,2013-06-02 01:26:00,
2013-06-01 18:31:00,70.4,51.5,30.02,WNW,291,3.0,3.0,51,0.00,,,0.00,WUHU216DAVISVP2,2013-06-02 01:31:00,
2013-06-01 18:36:00,70.7,50.1,30.02,NE,40,0.0,3.0,48,0.00,,,0.00,WUHU216DAVISVP2,2013-06-02 01:36:00,
2013-06-01 18:41:00,70.6,50.6,30.02,WNW,290,0.0,4.0,49,0.00,,,0.00,WUHU216DAVISVP2,2013-06-02 01:41:00,
2013-06-01 18:46:00,70.6,50.0,30.02,NW,323,0.0,4.0,48,0.00,,,0.00,WUHU216DAVISVP2,2013-06-02 01:46:00,
2013-06-01 18:51:00,70.5,49.9,30.02,SSE,168,0.0,4.0,48,0.00,,,0.00,WUHU216DAVISVP2,2013-06-02 01:51:00,
2013-06-01 18:56:00,70.0,50.6,30.02,ENE,57,6.0,6.0,50,0.00,,,0.00,WUHU216DAVISVP2,2013-06-02 01:56:00,
2013-06-01 19:01:00,69.4,50.6,30.02,NE,37,1.0,6.0,51,0.00,,,0.00,WUHU216DAVISVP2,2013-06-02 02:01:00,
2013-06-01 19:06:00,69.2,50.9,30.02,NW,324,2.0,4.0,52,0.00,,,0.00,WUHU216DAVISVP2,2013-06-02 02:06:00,
2013-06-01 19:11:00,69.2,51.4,30.02,North,350,2.0,4.0,53,0.00,,,0.00,WUHU216DAVISVP2,2013-06-02 02:11:00,
2013-06-01 19:16:00,68.9,50.6,30.02,NE,36,1.0,4.0,52,0.00,,,0.00,WUHU216DAVISVP2,2013-06-02 02:16:00,
2013-06-01 19:21:00,68.9,50.1,30.02,NE,38,2.0,4.0,51,0.00,,,0.00,WUHU216DAVISVP2,2013-06-02 02:21:00,
2013-06-01 19:26:00,68.6,50.4,30.02,NNW,336,1.0,4.0,52,0.00,,,0.00,WUHU216DAVISVP2,2013-06-02 02:26:00,
2013-06-01 19:31:00,68.1,49.9,30.02,North,360,5.0,5.0,52,0.00,,,0.00,WUHU216DAVISVP2,2013-06-02 02:31:00,
2013-06-01 19:36:00,67.5,50.4,30.01,North,350,1.0,5.0,54,0.00,,,0.00,WUHU216DAVISVP2,2013-06-02 02:36:00,
2013-06-01 19:41:00,67.1,50.0,30.01,North,355,0.0,4.0,54,0.00,,,0.00,WUHU216DAVISVP2,2013-06-02 02:41:00,
2013-06-01 19:46:00,67.0,50.4,30.01,North,355,0.0,1.0,55,0.00,,,0.00,WUHU216DAVISVP2,2013-06-02 02:46:00,
2013-06-01 19:51:00,66.9,51.3,30.01,North,355,0.0,1.0,57,0.00,,,0.00,WUHU216DAVISVP2,2013-06-02 02:51:00,
2013-06-01 19:56:00,66.8,50.2,30.01,North,355,0.0,1.0,55,0.00,,,0.00,WUHU216DAVISVP2,2013-06-02 02:56:00,
2013-06-01 20:01:00,66.6,50.5,30.01,North,360,0.0,3.0,56,0.00,,,0.00,WUHU216DAVISVP2,2013-06-02 03:01:00,
2013-06-01 20:05:00,66.4,50.3,30.01,North,360,0.0,3.0,56,0.00,,,0.00,WUHU216DAVISVP2,2013-06-02 03:05:00,
2013-06-01 20:10:00,66.2,50.6,30.01,NNW,327,0.0,1.0,57,0.00,,,0.00,WUHU216DAVISVP2,2013-06-02 03:10:00,
2013-06-01 20:15:00,66.0,50.9,30.01,North,5,0.0,0.0,58,0.00,,,0.00,WUHU216DAVISVP2,2013-06-02 03:15:00,
2013-06-01 20:20:00,65.8,50.6,30.00,NE,38,0.0,3.0,58,0.00,,,0.00,WUHU216DAVISVP2,2013-06-02 03:20:00,
2013-06-01 20:25:00,65.6,50.4,30.00,NE,39,0.0,5.0,58,0.00,,,0.00,WUHU216DAVISVP2,2013-06-02 03:25:00,
2013-06-01 20:30:00,65.4,50.8,30.00,SW,221,1.0,5.0,59,0.00,,,0.00,WUHU216DAVISVP2,2013-06-02 03:30:00,
2013-06-01 20:35:00,65.3,51.2,30.01,NE,44,0.0,5.0,60,0.00,,,0.00,WUHU216DAVISVP2,2013-06-02 03:35:00,
2013-06-01 20:40:00,65.0,51.4,30.01,NE,44,0.0,5.0,61,0.00,,,0.00,WUHU216DAVISVP2,2013-06-02 03:40:00,
2013-06-01 20:45:00,64.9,51.3,30.01,NNE,22,0.0,1.0,61,0.00,,,0.00,WUHU216DAVISVP2,2013-06-02 03:45:00,
2013-06-01 20:50:00,64.7,50.9,30.01,NNE,30,1.0,2.0,61,0.00,,,0.00,WUHU216DAVISVP2,2013-06-02 03:50:00,
2013-06-01 20:55:00,64.5,51.4,30.02,NE,44,0.0,2.0,62,0.00,,,0.00,WUHU216DAVISVP2,2013-06-02 03:55:00,
2013-06-01 21:00:00,64.1,51.4,30.02,NE,40,0.0,2.0,63,0.00,,,0.00,WUHU216DAVISVP2,2013-06-02 04:00:00,
2013-06-01 21:01:00,64.1,51.4,30.02,NE,40,0.0,2.0,63,0.00,,,0.00,WUHU216DAVISVP2,2013-06-02 04:01:00,
2013-06-01 21:06:00,63.9,51.2,30.02,North,5,0.0,2.0,63,0.00,,,0.00,WUHU216DAVISVP2,2013-06-02 04:06:00,
2013-06-01 21:11:00,63.6,51.2,30.02,NNW,329,1.0,2.0,64,0.00,,,0.00,WUHU216DAVISVP2,2013-06-02 04:11:00,
2013-06-01 21:16:00,63.3,50.9,30.03,NE,45,0.0,2.0,64,0.00,,,0.00,WUHU216DAVISVP2,2013-06-02 04:16:00,
2013-06-01 21:21:00,63.1,50.9,30.03,NE,41,0.0,5.0,64,0.00,,,0.00,WUHU216DAVISVP2,2013-06-02 04:21:00,
2013-06-01 21:26:00,62.8,50.6,30.03,NW,311,0.0,5.0,64,0.00,,,0.00,WUHU216DAVISVP2,2013-06-02 04:26:00,
2013-06-01 21:31:00,62.6,50.7,30.03,North,351,2.0,2.0,65,0.00,,,0.00,WUHU216DAVISVP2,2013-06-02 04:31:00,
2013-06-01 21:36:00,62.3,50.8,30.03,North,351,0.0,2.0,66,0.00,,,0.00,WUHU216DAVISVP2,2013-06-02 04:36:00,
2013-06-01 21:41:00,62.0,50.7,30.03,North,351,0.0,1.0,66,0.00,,,0.00,WUHU216DAVISVP2,2013-06-02 04:41:00,
2013-06-01 21:46:00,61.7,50.4,30.04,NNE,23,0.0,2.0,66,0.00,,,0.00,WUHU216DAVISVP2,2013-06-02 04:46:00,
2013-06-01 21:51:00,61.5,50.2,30.03,NE,46,1.0,3.0,66,0.00,,,0.00,WUHU216DAVISVP2,2013-06-02 04:51:00,
2013-06-01 21:56:00,61.2,50.2,30.03,NE,36,0.0,3.0,67,0.00,,,0.00,WUHU216DAVISVP2,2013-06-02 04:56:00,
2013-06-01 22:01:00,61.0,50.5,30.04,NE,36,0.0,2.0,68,0.00,,,0.00,WUHU216DAVISVP2,2013-06-02 05:01:00,
2013-06-01 22:06:00,60.8,50.3,30.04,NE,36,0.0,1.0,68,0.00,,,0.00,WUHU216DAVISVP2,2013-06-02 05:06:00,
2013-06-01 22:11:00,60.4,50.3,30.03,NNE,31,0.0,2.0,69,0.00,,,0.00,WUHU216DAVISVP2,2013-06-02 05:11:00,
2013-06-01 22:16:00,60.1,50.4,30.04,NNE,31,0.0,2.0,70,0.00,,,0.00,WUHU216DAVISVP2,2013-06-02 05:16:00,
2013-06-01 22:21:00,59.8,50.1,30.04,NNE,31,0.0,0.0,70,0.00,,,0.00,WUHU216DAVISVP2,2013-06-02 05:21:00,
2013-06-01 22:26:00,59.4,50.1,30.04,NNE,31,0.0,0.0,71,0.00,,,0.00,WUHU216DAVISVP2,2013-06-02 05:26:00,
2013-06-01 22:31:00,59.1,49.8,30.03,NNE,31,0.0,0.0,71,0.00,,,0.00,WUHU216DAVISVP2,2013-06-02 05:31:00,
2013-06-01 22:36:00,58.8,49.9,30.04,NNE,31,0.0,0.0,72,0.00,,,0.00,WUHU216DAVISVP2,2013-06-02 05:36:00,
2013-06-01 22:41:00,58.6,49.7,30.04,NNE,31,0.0,0.0,72,0.00,,,0.00,WUHU216DAVISVP2,2013-06-02 05:41:00,
2013-06-01 22:46:00,58.3,49.4,30.04,NNE,28,0.0,2.0,72,0.00,,,0.00,WUHU216DAVISVP2,2013-06-02 05:46:00,
2013-06-01 22:51:00,58.1,49.2,30.04,NNW,331,0.0,2.0,72,0.00,,,0.00,WUHU216DAVISVP2,2013-06-02 05:51:00,
2013-06-01 22:56:00,58.0,49.5,30.04,NNW,331,0.0,2.0,73,0.00,,,0.00,WUHU216DAVISVP2,2013-06-02 05:56:00,
2013-06-01 23:01:00,57.8,49.3,30.04,NNW,331,0.0,1.0,73,0.00,,,0.00,WUHU216DAVISVP2,2013-06-02 06:01:00,
2013-06-01 23:06:00,57.6,49.1,30.04,NW,321,0.0,1.0,73,0.00,,,0.00,WUHU216DAVISVP2,2013-06-02 06:06:00,
2013-06-01 23:11:00,57.4,49.3,30.03,NW,321,0.0,0.0,74,0.00,,,0.00,WUHU216DAVISVP2,2013-06-02 06:11:00,
2013-06-01 23:16:00,57.2,49.1,30.03,NW,321,0.0,0.0,74,0.00,,,0.00,WUHU216DAVISVP2,2013-06-02 06:16:00,
2013-06-01 23:21:00,57.1,49.3,30.04,NW,315,0.0,1.0,75,0.00,,,0.00,WUHU216DAVISVP2,2013-06-02 06:21:00,
2013-06-01 23:26:00,57.0,49.9,30.04,NW,315,0.0,1.0,77,0.00,,,0.00,WUHU216DAVISVP2,2013-06-02 06:26:00,
2013-06-01 23:31:00,56.8,49.4,30.04,NW,315,0.0,1.0,76,0.00,,,0.00,WUHU216DAVISVP2,2013-06-02 06:31:00,
2013-06-01 23:36:00,56.6,49.5,30.03,NW,315,0.0,1.0,77,0.00,,,0.00,WUHU216DAVISVP2,2013-06-02 06:36:00,
2013-06-01 23:41:00,56.5,49.8,30.03,West,277,0.0,1.0,78,0.00,,,0.00,WUHU216DAVISVP2,2013-06-02 06:41:00,
2013-06-01 23:46:00,56.4,49.7,30.03,West,262,0.0,1.0,78,0.00,,,0.00,WUHU216DAVISVP2,2013-06-02 06:46:00,
2013-06-01 23:51:00,56.3,49.6,30.03,West,262,0.0,1.0,78,0.00,,,0.00,WUHU216DAVISVP2,2013-06-02 06:51:00,
2013-06-01 23:56:00,56.1,49.4,30.03,West,262,1.0,1.0,78,0.00,,,0.00,WUHU216DAVISVP2,2013-06-02 06:56:00,